TimeICT,TemperatureF,Dew PointF,Humidity,Sea Level PressureIn,VisibilityMPH,Wind Direction,Wind SpeedMPH,Gust SpeedMPH,PrecipitationIn,Events,Conditions,WindDirDegrees,DateUTC
12:00 AM,78.8,73.4,83,29.86,4.3,Calm,Calm,-,N/A,,Mostly Cloudy,0,2012-11-24 17:00:00
12:30 AM,78.8,73.4,83,29.86,4.3,North,3.5,-,N/A,,Mostly Cloudy,10,2012-11-24 17:30:00
1:00 AM,78.8,75.2,89,29.86,3.7,NW,4.6,-,N/A,Rain,Light Rain Showers,310,2012-11-24 18:00:00
1:30 AM,78.8,75.2,89,29.83,4.3,Calm,Calm,-,N/A,Thunderstorm,Thunderstorm,0,2012-11-24 18:30:00
2:00 AM,78.8,75.2,89,29.83,4.3,NW,4.6,-,N/A,,Mostly Cloudy,310,2012-11-24 19:00:00
2:30 AM,78.8,75.2,89,29.83,4.3,Calm,Calm,-,N/A,,Mostly Cloudy,0,2012-11-24 19:30:00
3:00 AM,78.8,75.2,89,29.83,4.3,NW,4.6,-,N/A,,Mostly Cloudy,310,2012-11-24 20:00:00
3:30 AM,78.8,75.2,89,29.83,4.3,Calm,Calm,-,N/A,,Mostly Cloudy,0,2012-11-24 20:30:00
5:00 AM,80.6,75.2,84,29.83,4.3,South,3.5,-,N/A,,Mostly Cloudy,180,2012-11-24 22:00:00
5:30 AM,80.6,73.4,79,29.83,5.0,South,3.5,-,N/A,,Mostly Cloudy,180,2012-11-24 22:30:00
6:30 AM,78.8,71.6,78,29.86,5.6,South,3.5,-,N/A,Thunderstorm,Thunderstorm,170,2012-11-24 23:30:00
7:00 AM,80.6,73.4,79,29.86,6.2,SSW,3.5,-,N/A,,Mostly Cloudy,210,2012-11-25 00:00:00
7:30 AM,80.6,73.4,79,29.89,6.2,Calm,Calm,-,N/A,,Mostly Cloudy,0,2012-11-25 00:30:00
8:00 AM,82.4,35.6,19,29.89,6.2,Calm,Calm,-,N/A,,Mostly Cloudy,0,2012-11-25 01:00:00
8:30 AM,82.4,75.2,79,29.92,6.2,Calm,Calm,-,N/A,,Mostly Cloudy,0,2012-11-25 01:30:00
9:00 AM,82.4,73.4,74,29.92,6.2,Calm,Calm,-,N/A,,Mostly Cloudy,0,2012-11-25 02:00:00
9:30 AM,86.0,71.6,62,29.92,6.2,Calm,Calm,-,N/A,,Mostly Cloudy,0,2012-11-25 02:30:00
10:00 AM,86.0,73.4,66,29.92,6.2,Calm,Calm,-,N/A,,Mostly Cloudy,0,2012-11-25 03:00:00
10:30 AM,86.0,75.2,70,29.92,6.2,NE,3.5,-,N/A,,Mostly Cloudy,40,2012-11-25 03:30:00
11:00 AM,87.8,75.2,66,29.89,6.2,NE,2.3,-,N/A,,Mostly Cloudy,50,2012-11-25 04:00:00
11:30 AM,87.8,73.4,62,29.89,6.2,WSW,5.8,-,N/A,,Mostly Cloudy,240,2012-11-25 04:30:00
1:00 PM,86.0,73.4,66,29.86,6.2,South,4.6,-,N/A,,Mostly Cloudy,180,2012-11-25 06:00:00
1:30 PM,87.8,71.6,58,29.83,6.2,South,5.8,-,N/A,,Mostly Cloudy,180,2012-11-25 06:30:00
2:00 PM,86.0,71.6,62,29.83,6.2,South,6.9,-,N/A,,Mostly Cloudy,180,2012-11-25 07:00:00
2:30 PM,84.2,73.4,70,29.83,6.2,SSW,3.5,-,N/A,,Mostly Cloudy,200,2012-11-25 07:30:00
3:00 PM,84.2,73.4,70,29.83,6.2,SSW,3.5,-,N/A,,Mostly Cloudy,210,2012-11-25 08:00:00
3:30 PM,84.2,73.4,70,29.80,6.2,SW,4.6,-,N/A,,Mostly Cloudy,230,2012-11-25 08:30:00
4:00 PM,84.2,75.2,74,29.80,6.2,WNW,3.5,-,N/A,,Mostly Cloudy,290,2012-11-25 09:00:00
4:30 PM,84.2,73.4,70,29.80,6.2,SSW,4.6,-,N/A,,Mostly Cloudy,200,2012-11-25 09:30:00
5:00 PM,86.0,73.4,66,29.80,6.2,WSW,3.5,-,N/A,,Mostly Cloudy,240,2012-11-25 10:00:00
5:30 PM,84.2,73.4,70,29.83,5.6,SW,3.5,-,N/A,,Mostly Cloudy,230,2012-11-25 10:30:00
6:00 PM,82.4,75.2,79,29.83,5.6,Calm,Calm,-,N/A,,Mostly Cloudy,0,2012-11-25 11:00:00
6:30 PM,80.6,75.2,84,29.86,5.6,NNW,3.5,-,N/A,,Mostly Cloudy,330,2012-11-25 11:30:00
7:00 PM,80.6,75.2,84,29.86,5.6,NNW,3.5,-,N/A,,Mostly Cloudy,340,2012-11-25 12:00:00
7:30 PM,78.8,75.2,89,29.86,5.6,NNE,3.5,-,N/A,,Mostly Cloudy,30,2012-11-25 12:30:00
8:00 PM,78.8,75.2,89,29.89,5.6,NE,4.6,-,N/A,,Mostly Cloudy,40,2012-11-25 13:00:00
8:30 PM,78.8,75.2,89,29.89,5.0,ENE,4.6,-,N/A,,Mostly Cloudy,60,2012-11-25 13:30:00
9:00 PM,78.8,75.2,89,29.89,5.0,NNE,4.6,-,N/A,,Mostly Cloudy,20,2012-11-25 14:00:00
9:30 PM,78.8,73.4,83,29.89,5.0,NNE,4.6,-,N/A,,Mostly Cloudy,20,2012-11-25 14:30:00
10:00 PM,77.0,73.4,89,29.89,4.3,NNE,3.5,-,N/A,,Mostly Cloudy,20,2012-11-25 15:00:00
10:30 PM,77.0,73.4,89,29.89,4.3,NE,3.5,-,N/A,,Mostly Cloudy,40,2012-11-25 15:30:00
11:00 PM,77.0,73.4,89,29.89,4.3,NNE,2.3,-,N/A,,Mostly Cloudy,30,2012-11-25 16:00:00
11:30 PM,77.0,73.4,89,29.89,4.3,Calm,Calm,-,N/A,,Mostly Cloudy,0,2012-11-25 16:30:00